Hourly Data Report for April 02, 2020

NANAIMO A
BRITISH COLUMBIA
Current Station Operator: NAVCAN

49°03'16.000" N
123°52'12.000" W
28.00 m
1025365
YCD

Download Data

Hourly Data (April 2020)
Hourly Data Report for April 2, 2020
TIME
LST
Temp Definition
°C
Dew Point Definition
°C
Rel Hum Definition
%
Precip. Amount Definition
mm

Wind Dir Definition
10's deg

Wind Spd Definition
km/h
Visibility Definition
km
Stn Press Definition
kPa
Hmdx Definition


Wind Chill Definition


Weather Definition


00:00 0.1 -0.2 98 LegendMM 36 3 LegendMM 101.72     LegendNANA
01:00 -0.2 -0.5 98 LegendMM 29 1 LegendMM 101.74   -1 LegendNANA
02:00 -0.7 -0.9 98 LegendMM 18 4 LegendMM 101.76   -2 LegendNANA
03:00 -0.7 -1.0 98 LegendMM 20 6 LegendMM 101.77   -3 LegendNANA
04:00 -0.6 -1.0 97 LegendMM 1 4 LegendMM 101.76   -2 LegendNANA
05:00 0.7 0.3 97 LegendMM 28 3 LegendMM 101.78     LegendNANA
06:00 1.4 0.7 95 LegendMM 28 5 LegendMM 101.80     LegendNANA
07:00 2.2 0.9 91 LegendMM 25 3 LegendMM 101.85     LegendNANA
08:00 3.9 1.3 83 LegendMM 29 7 LegendMM 101.84     LegendNANA
09:00 6.4 1.5 71 LegendMM 4 11 LegendMM 101.84     LegendNANA
10:00 6.1 0.5 68 LegendMM 10 19 LegendMM 101.86     LegendNANA
11:00 5.4 0.4 70 LegendMM 9 14 LegendMM 101.85     LegendNANA
12:00 5.7 0.7 70 LegendMM 10 16 LegendMM 101.88     LegendNANA
13:00 5.7 2.8 81 LegendMM 10 8 LegendMM 101.87     LegendNANA
14:00 7.1 2.3 71 LegendMM 10 9 LegendMM 101.81     LegendNANA
15:00 6.4 2.3 75 LegendMM 13 7 LegendMM 101.80     LegendNANA
16:00 6.5 2.5 75 LegendMM 16 13 LegendMM 101.79     LegendNANA
17:00 5.9 3.2 83 LegendMM 18 5 LegendMM 101.75     LegendNANA
18:00 5.8 2.5 79 LegendMM 27 9 LegendMM 101.74     LegendNANA
19:00 4.7 2.7 87 LegendMM 19 9 LegendMM 101.70     LegendNANA
20:00 4.2 2.5 89 LegendMM 26 5 LegendMM 101.69     LegendNANA
21:00 4.3 1.3 81 LegendMM 29 5 LegendMM 101.68     LegendNANA
22:00 3.2 1.4 88 LegendMM   0 LegendMM 101.64     LegendNANA
23:00 2.5 0.2 85 LegendMM 30 7 LegendMM 101.63     LegendNANA

Notes on Data Quality.

Legend

  • E = Estimated
  • M = Missing
  • NA = Not Available*
  • [empty] = Indicates an unobserved value
Date modified: